ISS (25544 NORAD) Tracking and Keplerian Element Data

This shows tracking and keplerian element data for the satellite.

Feedback or suggestion? Click here.




ElementValue
Catalog25544
NameISS
Epoch Orbit2044
Epoch Day94.58070763
Epoch Year2020
RAAN357.6459
Inclination51.6455
Eccentricity0.0003742
Argument of Perigee78.0658
Mean Anonmoly282.0911
Mean Motion15.48700919
Decay Rate0.00016717
L11 25544U 98067A 20094.58070763 .00016717 00000-0 10270-3 0 9019
L22 25544 51.6455 357.6459 0003742 78.0658 282.0911 15.48700919 20444

Live tracking and technical data element details for ISS (NORAD 25544). ISS can be tracked NOW for your location showing map with azimuth and elevation plus other details from your city location.

Track the satellite on the map from your city or location and see movement details for azimuth, elevation, latitude, longitude, range, height, and movement on the map or in text.







IsCatalogInMostPopularTable: catalog: 25544, numindb: 35750
Update: records affected: 2



GetName: 25544 ISS

Hit Count: updated at: Thu, 09 Apr 2020 16:51:39 GMT